Regional Weather Roundup
Issued by NWS

Home | Current Version | Previous Version | Graphics & Text | Print | Product List | Glossary On
Versions: 1 2 3 4 5 6 7 8 9 10 11 12 13 14 15 16 17 18 19 20 21 22 23 24 25 26 27 28 29 30 31 32 33 34 35 36 37 38 39 40 41 42 43 44 45 46 47 48 49 50
000
ASUS45 KBOI 210410
RWRID

IDAHO REGIONAL WEATHER ROUNDUP
NATIONAL WEATHER SERVICE BOISE ID
900 PM MST MON NOV 20 2017

NOTE: "FAIR" INDICATES FEW OR NO CLOUDS BELOW 12000 FEET
WITH NO SIGNIFICANT WEATHER AND/OR OBSTRUCTIONS TO VISIBILITY

IDZ012-014-210500-
SOUTHWEST IDAHO


CITY           SKY/WX    TMP DP  RH WIND       PRES   REMARKS
BOISE          CLOUDY    48  42  80 SE13      30.02R
CALDWELL       LGT RAIN  49  44  83 E16       30.01R
MOUNTAIN HOME  CLOUDY    42  42 100 E14       30.04R
$$

IDZ016-017-210500-
SOUTHCENTRAL IDAHO


CITY           SKY/WX    TMP DP  RH WIND       PRES   REMARKS
BURLEY         LGT RAIN  47  41  80 SW10      30.04R
JEROME         LGT RAIN  43  41  93 E5        30.06R
TWIN FALLS     LGT RAIN  47  43  86 SW5       30.06R
$$

IDZ019>023-210500-
SOUTHEAST IDAHO


CITY           SKY/WX    TMP DP  RH WIND       PRES   REMARKS
IDAHO FALLS    CLOUDY    39  35  86 SW8       30.02R WCI  33
POCATELLO      CLOUDY    48  38  68 S21       30.03S
REXBURG        CLOUDY    38  35  89 SW5       30.01S WCI  34
$$

IDZ006-010-011-018-031-032-210500-
CENTRAL IDAHO MOUNTAINS


CITY           SKY/WX    TMP DP  RH WIND       PRES   REMARKS
MCCALL         CLOUDY    37  35  92 E3        29.99R
HAILEY         MOCLDY    34  34 100 NW5       30.06R WCI  30
STANLEY          N/A     38  36  92 CALM      30.01R
SALMON         LGT RAIN  35  33  92 SE3       29.96R FOG
CHALLIS        LGT RAIN  40  35  83 CALM      29.95R
$$

IDZ002-004-006-007-026-210500-
NORTHERN IDAHO


CITY           SKY/WX    TMP DP  RH WIND       PRES   REMARKS
LEWISTON       PTCLDY    45  41  86 E3        29.98R
LOWELL           N/A     38  37  97 N3        30.04R
COEUR D`ALENE  CLOUDY    42  38  85 SW7       29.94R
MULLAN PASS    FLURRIES  30  27  88 VRB7G22   29.88R WCI  23
$$



USA.gov is the U.S. government's official web portal to all federal, state and local government web resources and services.